AAU CUBESAT

Satellite information

Favourite Embed

Satellite Type and Status

PAYLOADIN ORBIT

Key statistics

Satellite AAU CUBESAT at a glance.

Uptime

7983

Days in orbit

Revolutions

≈ 14.2

Per day

Orbit

SSO

Sun Synchronous Orbit

Inclination

98.7

Latest

Satellite identification and parameters

Extended collection of information and parameters for AAU CUBESAT.

Object identification

Identified? True

Debris? False

Object name: AAU CUBESAT

International designator: 2003-031G

Object number (NORAD): 27846

Object ID (CCSDS): 27846

Country: DENMARK (DEN)

Current information (Y/N): Y

RCS size: SMALL

Orbital parameters

Period: 101.147 minutes

Inclination: 98.6875 deg

SMA: 7191.112 km

Apoapsis: 818.766 km

Periapsis: 807.188 km

RAAN: 135.8148 deg

Eccentricy: 0.000805

Argument of periapsis: 257.9885 deg

Mean anomaly: 102.0392 deg

Mean motion: 14.23667865 rev/day

Mean motion (dot): 0.00000386 rev/day2

B* drag term: 0.00018853 1/REarth

Two-line elements (TLE)

Creation date: May 8, 2025, 3:01 a.m.

Reference frame: TEME

Reference center: EARTH

Epoch: May 7, 2025, 10:59 a.m. UTC

TLE line 0: 0 AAU CUBESAT

TLE line 1: 1 27846U 03031G 25127.45831065 .00000386 00000-0 18853-3 0 9998

TLE line 2: 2 27846 98.6875 135.8148 0008050 257.9885 102.0392 14.23667865133955

Live tracking on map

Real-time ground track for satellite AAU CUBESAT.

In-orbit conjunctions

A list of the most updated potential collisions computed for object AAU CUBESAT.

Target Orbit TCA Probability of collision Miss distance Type
FENGYUN 1C DEB SSO 2025-04-18 20:25:50 0.0002483197 412.0 (m) DEBRIS
SL-16 DEB LEO 2025-04-09 21:16:46 0.0006004872 214.0 (m) DEBRIS
DELTA 1 DEB SSO 2025-02-22 12:47:52 0.00161062 286.0 (m) DEBRIS
NOAA 16 DEB SSO 2024-11-04 13:37:09 0.0001082159 64.0 (m) DEBRIS
METEOR 2-8 DEB LEO 2024-08-12 10:03:32 0.0002020907 479.0 (m) DEBRIS

Associated space launch

MIMOSA (Micro Measurements Of Satellite Acceleration) is a microsatellite to measure atmospheric drag.

AAU CUBESAT was lifted into orbit during the mission ‘Rokot / Briz-KM | Mimosa’, on board a Rokot/Briz-KM space rocket.

The launch took place on June 30, 2003, 2:15 p.m. from 133/3 (133L).

For more information about the launch, click the button.

Launch to space Rokot / Briz-KM | Mimosa
Rokot / Briz-KM | Mimosa

Agency: N/A

Status: Launch Successful

Launch date: June 30, 2003, 2:15 p.m. UTC

Rocket: Rokot/Briz-KM

Launch pad: 133/3 (133L)

Location: Plesetsk Cosmodrome, Russian Federation

...

Latest news about this satellite

There are no fresh news available about this satellite. Check back as we update our databases every day.


Newsletter sign-up

Weekly statistics, charts and insights to help you stay on top of the space industry.